Zurück zum Katalog

SIRIUS 1

AktivKommunikationMEO
NORAD 26390·PAYLOAD·🇺🇸 United States

Gestartet Jun 30, 2000 von Baikonur Cosmodrome

Loading…

Nächste Überflüge (nächste 24 Stunden)

TLE

AktuellSource: Space-Track

Epoche: Sep 14, 2026, 09:58 UTC

1 26390U 00035A   26257.41547481  .00000002  00000-0  00000-0 0  9996
2 26390  59.3845 158.1265 0002345   7.8074 174.0124  1.57877252 73276

Verfolge SIRIUS 1 in Echtzeit mit AllMySat

Download on the App Store